• In Deutschland
  • Länderverzeichnis
  • Für 7 Tage
  • Wassertemperatur
  • Satellitenkarten
  • Wetterkarte
  • Widgets
  • user-avatar
    Anmelden

    Stündliche Wetter Taunusstein

    Heute, 21 September, Freitag

    Zeit Temperatur Niederschläge Wind Luftdruck Luftfeuchtigkeit
    00:00 +18°C° 0 mm 2 m/S 725 mmHg 78%
    01:00 +18°C° 0 mm 2 m/S 725 mmHg 79%
    02:00 +18°C° 0 mm 2 m/S 725 mmHg 79%
    03:00 +18°C° 0 mm 2 m/S 724 mmHg 78%
    04:00 +17°C° 0 mm 3 m/S 724 mmHg 78%
    05:00 +18°C° 0 mm 3 m/S 724 mmHg 76%
    06:00 +18°C° 0 mm 3 m/S 723 mmHg 74%
    07:00 +18°C° 0 mm 3 m/S 723 mmHg 68%
    08:00 +19°C° 0.1 mm 4 m/S 723 mmHg 65%
    09:00 +20°C° 0.1 mm 5 m/S 723 mmHg 62%
    10:00 +21°C° 0.1 mm 6 m/S 723 mmHg 59%
    11:00 +21°C° 0.1 mm 6 m/S 723 mmHg 61%
    12:00 +20°C° 0.1 mm 7 m/S 723 mmHg 62%
    13:00 +20°C° 0.1 mm 7 m/S 724 mmHg 64%
    14:00 +18°C° 0.3 mm 7 m/S 724 mmHg 65%
    15:00 +17°C° 0.3 mm 6 m/S 724 mmHg 65%
    16:00 +15°C° 0.3 mm 6 m/S 725 mmHg 66%
    17:00 +15°C° 0 mm 5 m/S 725 mmHg 62%
    18:00 +14°C° 0 mm 5 m/S 726 mmHg 58%
    19:00 +13°C° 0 mm 4 m/S 727 mmHg 54%
    20:00 +12°C° 0 mm 4 m/S 728 mmHg 54%
    21:00 +12°C° 0 mm 4 m/S 728 mmHg 55%
    22:00 +11°C° 0 mm 4 m/S 729 mmHg 55%
    23:00 +10°C° 0 mm 4 m/S 729 mmHg 57%

    Morgen, 22 September, Samstag

    Zeit Temperatur Niederschläge Wind Luftdruck Luftfeuchtigkeit
    00:00 +10°C° 0 mm 4 m/S 730 mmHg 60%
    01:00 +10°C° 0 mm 4 m/S 730 mmHg 62%
    02:00 +8°C° 0 mm 4 m/S 730 mmHg 66%
    03:00 +9°C° 0 mm 3 m/S 730 mmHg 69%
    04:00 +9°C° 0 mm 3 m/S 731 mmHg 72%
    05:00 +9°C° 0 mm 3 m/S 731 mmHg 73%
    06:00 +8°C° 0 mm 3 m/S 731 mmHg 74%
    07:00 +8°C° 0 mm 3 m/S 731 mmHg 75%
    08:00 +10°C° 0 mm 3 m/S 732 mmHg 70%
    09:00 +11°C° 0 mm 4 m/S 732 mmHg 65%
    10:00 +13°C° 0 mm 4 m/S 732 mmHg 60%
    11:00 +14°C° 0 mm 4 m/S 732 mmHg 56%
    12:00 +15°C° 0 mm 4 m/S 732 mmHg 52%
    13:00 +16°C° 0 mm 5 m/S 732 mmHg 48%
    14:00 +17°C° 0.1 mm 4 m/S 732 mmHg 49%
    15:00 +15°C° 0.1 mm 4 m/S 731 mmHg 50%
    16:00 +15°C° 0.1 mm 4 m/S 731 mmHg 51%
    17:00 +14°C° 0.1 mm 3 m/S 731 mmHg 55%
    18:00 +13°C° 0.1 mm 3 m/S 731 mmHg 60%
    19:00 +13°C° 0.1 mm 2 m/S 731 mmHg 64%
    20:00 +13°C° 0 mm 2 m/S 731 mmHg 66%
    21:00 +12°C° 0 mm 2 m/S 732 mmHg 68%
    22:00 +12°C° 0 mm 1 m/S 732 mmHg 71%
    23:00 +11°C° 0.1 mm 1 m/S 732 mmHg 73%

    übermorgen, 23 September, Sonntag

    Zeit Temperatur Niederschläge Wind Luftdruck Luftfeuchtigkeit
    00:00 +11°C° 0.1 mm 1 m/S 731 mmHg 75%
    01:00 +11°C° 0.1 mm 1 m/S 731 mmHg 77%
    02:00 +11°C° 0.6 mm 1 m/S 731 mmHg 80%
    03:00 +11°C° 0.6 mm 1 m/S 730 mmHg 83%
    04:00 +11°C° 0.6 mm 1 m/S 730 mmHg 86%
    05:00 +11°C° 0.4 mm 1 m/S 730 mmHg 86%
    06:00 +10°C° 0.4 mm 2 m/S 729 mmHg 87%
    07:00 +10°C° 0.4 mm 2 m/S 728 mmHg 88%
    08:00 +10°C° 0.5 mm 2 m/S 728 mmHg 88%
    09:00 +10°C° 0.5 mm 2 m/S 728 mmHg 88%
    10:00 +12°C° 0.5 mm 2 m/S 728 mmHg 89%
    11:00 +13°C° 1.2 mm 2 m/S 727 mmHg 90%
    12:00 +13°C° 1.2 mm 3 m/S 727 mmHg 91%
    13:00 +13°C° 1.2 mm 3 m/S 726 mmHg 92%
    14:00 +16°C° 0.6 mm 3 m/S 725 mmHg 91%
    15:00 +17°C° 0.6 mm 4 m/S 725 mmHg 90%
    16:00 +17°C° 0.6 mm 5 m/S 724 mmHg 89%
    17:00 +17°C° 1.2 mm 6 m/S 723 mmHg 88%
    18:00 +18°C° 1.2 mm 7 m/S 722 mmHg 87%
    19:00 +18°C° 1.2 mm 8 m/S 721 mmHg 87%
    20:00 +17°C° 1.8 mm 8 m/S 721 mmHg 85%
    21:00 +15°C° 1.8 mm 9 m/S 722 mmHg 83%
    22:00 +13°C° 1.8 mm 9 m/S 723 mmHg 81%
    23:00 +11°C° 0.1 mm 8 m/S 725 mmHg 81%

    24 September, Montag

    Zeit Temperatur Niederschläge Wind Luftdruck Luftfeuchtigkeit
    00:00 +9°C° 0.1 mm 7 m/S 727 mmHg 80%
    01:00 +7°C° 0.1 mm 6 m/S 729 mmHg 80%
    02:00 +6°C° 0 mm 5 m/S 730 mmHg 81%
    03:00 +6°C° 0 mm 4 m/S 732 mmHg 83%
    04:00 +7°C° 0 mm 3 m/S 733 mmHg 84%
    05:00 +7°C° 0 mm 3 m/S 734 mmHg 85%
    06:00 +5°C° 0 mm 3 m/S 735 mmHg 85%
    07:00 +6°C° 0 mm 2 m/S 736 mmHg 86%
    08:00 +8°C° 0 mm 3 m/S 737 mmHg 77%
    09:00 +9°C° 0 mm 3 m/S 737 mmHg 68%
    10:00 +11°C° 0 mm 3 m/S 738 mmHg 58%
    11:00 +12°C° 0 mm 4 m/S 738 mmHg 54%
    12:00 +13°C° 0 mm 4 m/S 739 mmHg 50%
    13:00 +14°C° 0 mm 4 m/S 739 mmHg 46%
    14:00 +13°C° 0 mm 4 m/S 739 mmHg 46%
    15:00 +13°C° 0 mm 4 m/S 739 mmHg 47%
    16:00 +13°C° 0 mm 4 m/S 739 mmHg 47%
    17:00 +12°C° 0 mm 4 m/S 739 mmHg 52%
    18:00 +10°C° 0 mm 3 m/S 740 mmHg 57%
    19:00 +9°C° 0 mm 2 m/S 740 mmHg 62%
    20:00 +8°C° 0 mm 2 m/S 741 mmHg 64%
    21:00 +7°C° 0 mm 2 m/S 741 mmHg 66%
    22:00 +6°C° 0 mm 2 m/S 742 mmHg 68%
    23:00 +6°C° 0 mm 2 m/S 742 mmHg 71%

    25 September, Dienstag

    Zeit Temperatur Niederschläge Wind Luftdruck Luftfeuchtigkeit
    00:00 +5°C° 0 mm 2 m/S 742 mmHg 73%
    01:00 +5°C° 0 mm 2 m/S 743 mmHg 75%
    02:00 +6°C° 0 mm 1 m/S 743 mmHg 77%
    03:00 +5°C° 0 mm 1 m/S 743 mmHg 79%
    04:00 +5°C° 0 mm 1 m/S 743 mmHg 80%
    05:00 +5°C° 0 mm 1 m/S 743 mmHg 81%
    06:00 +5°C° 0 mm 1 m/S 743 mmHg 81%
    07:00 +5°C° 0 mm 1 m/S 743 mmHg 81%
    08:00 +6°C° 0 mm 2 m/S 744 mmHg 72%
    09:00 +8°C° 0 mm 2 m/S 744 mmHg 63%
    10:00 +10°C° 0 mm 3 m/S 744 mmHg 54%
    11:00 +11°C° 0 mm 3 m/S 744 mmHg 49%
    12:00 +12°C° 0 mm 3 m/S 744 mmHg 44%
    13:00 +13°C° 0 mm 3 m/S 743 mmHg 40%
    14:00 +13°C° 0 mm 3 m/S 743 mmHg 39%
    15:00 +13°C° 0 mm 3 m/S 743 mmHg 39%
    16:00 +14°C° 0 mm 3 m/S 742 mmHg 39%
    17:00 +12°C° 0 mm 3 m/S 742 mmHg 43%
    18:00 +10°C° 0 mm 2 m/S 741 mmHg 48%
    19:00 +9°C° 0 mm 2 m/S 741 mmHg 53%
    20:00 +8°C° 0 mm 2 m/S 741 mmHg 54%
    21:00 +7°C° 0 mm 2 m/S 741 mmHg 56%
    22:00 +7°C° 0 mm 2 m/S 741 mmHg 57%
    23:00 +7°C° 0 mm 1 m/S 741 mmHg 58%

    26 September, Mittwoch

    Zeit Temperatur Niederschläge Wind Luftdruck Luftfeuchtigkeit
    00:00 +7°C° 0 mm 1 m/S 740 mmHg 58%
    01:00 +7°C° 0 mm 1 m/S 740 mmHg 59%
    02:00 +6°C° 0 mm 1 m/S 740 mmHg 60%
    03:00 +6°C° 0 mm 1 m/S 740 mmHg 61%
    04:00 +6°C° 0 mm 1 m/S 739 mmHg 62%
    05:00 +5°C° 0 mm 1 m/S 739 mmHg 63%
    06:00 +5°C° 0 mm 1 m/S 739 mmHg 64%
    07:00 +5°C° 0 mm 1 m/S 739 mmHg 64%
    08:00 +7°C° 0 mm 1 m/S 739 mmHg 57%
    09:00 +10°C° 0 mm 1 m/S 739 mmHg 50%
    10:00 +12°C° 0 mm 1 m/S 739 mmHg 43%
    11:00 +14°C° 0 mm 1 m/S 739 mmHg 40%
    12:00 +16°C° 0 mm 1 m/S 739 mmHg 36%
    13:00 +18°C° 0 mm 1 m/S 738 mmHg 32%
    14:00 +18°C° 0 mm 2 m/S 738 mmHg 34%
    15:00 +18°C° 0 mm 2 m/S 738 mmHg 35%
    16:00 +19°C° 0 mm 2 m/S 737 mmHg 36%
    17:00 +16°C° 0 mm 1 m/S 737 mmHg 43%
    18:00 +14°C° 0 mm 1 m/S 736 mmHg 50%
    19:00 +12°C° 0 mm 1 m/S 736 mmHg 56%
    20:00 +12°C° 0 mm 1 m/S 736 mmHg 59%
    21:00 +11°C° 0 mm 1 m/S 736 mmHg 62%
    22:00 +11°C° 0 mm 1 m/S 736 mmHg 65%
    23:00 +10°C° 0 mm 1 m/S 736 mmHg 67%
    Mehr zeigen